Location: Beaurecueil
(43.5122°N, 5.5450°E)
Time: 00:54:54
(UTC+00:00)

NOSS 2-2 (D) - Pass Details

Date: 18 September 2020
Orbit: 469 x 1739 km, 63.3° (Epoch: 23 October)

Event Time Altitude Azimuth Distance (km) Brightness Sun altitude
Rises 19:19:14 0° 227° (SW) 2,513 7.1 -18.1°
Reaches altitude 10° 19:21:20 10° 232° (SW) 1,624 6.1 -18.4°
Maximum altitude 19:24:45 53° 311° (NW) 597 3.8 -19.0°
Drops below altitude 10° 19:28:31 10° 29° (NNE) 1,791 5.9 -19.7°
Sets 19:30:57 0° 34° (NE) 2,809 6.8 -20.1°
